Location: Ambrosina
(19.9365°S, 43.9833°W)
Time: 02:06:57
(UTC+00:00)

Sakura Rocket - Pass Details

Date: 11 May 2021
Orbit: 476 x 1742 km, 28.7° (Epoch: 20 June)

Event Time Altitude Azimuth Distance (km) Brightness Sun altitude
Rises 20:55:36 0° 256° (WSW) 2,523 7.3 -6.8°
Reaches altitude 10° 20:57:45 10° 263° (W) 1,668 6.5 -7.3°
Maximum altitude 21:01:16 41° 335° (NNW) 766 3.9 -8.1°
Drops below altitude 10° 21:05:23 10° 46° (NE) 1,956 5.3 -9.0°
Sets 21:08:06 0° 53° (NE) 3,031 6.2 -9.6°
